Погода в Данковке

Россия / Липецкая область     51°57′22″N   40°18′28″E
темп.,
°C
ветер,
м/с
пор.,
м/с
влажн.,
%
обл.,
%
осадки,
мм/ч
давл.,
гПа
погр.,
м
5 марта, пт
пт500:000зюз51198100 0.1 1003484
03:00+1з61098100 0.3 1003513
06:00−1зсз51092100 0.1 1005517
09:00−3сз589497 0.1 1007506
12:00−1ссз349192 0.0 1010478
15:00−1сз348686 0.1 1012592
18:00−4зсз239023 0.0 101321
21:00−5зсз229323 0.0 101521
6 марта, сб
сб600:00−7сз229389 0.0 101521
03:00−7ссз129394 0.0 101621
06:00−7св1193100 0.0 101621
09:00−6в1192100 0.0 101649
12:00−4с0189100 0.0 1016283
15:00−3ссз1189100 0.2 1015303
18:00−5сз4893100 1.2 1015318
21:00−7ссз5994100 1.6 1017332
7 марта, вс
вс700:00−10сз479539 0.0 1017129
03:00−10з369120 0.0 1018108
06:00−10зюз48910 0.0 1018161
09:00−7юз613869 0.0 1016574
12:00−3юз81477100 0.0 10121132
15:00−2юз91670100 0.0 10071236
18:00−2юз101891100 0.3 10031128
21:00−4сз61476100 2.1 1004721
8 марта, пн
пн800:00−8зюз488167 0.0 1005133
03:00−8юз5108156 0.0 1005160
06:00−5юз71390100 0.0 1002393
09:00−4з8148298 0.5 10021147
12:00−5з7117418 0.0 10041096
15:00−6з7108114 0.0 1006931
18:00−8з61285100 0.0 1007688
21:00−8з6128697 0.1 1010614
9 марта, вт
вт900:00−10з5118822 0.0 1011289
03:00−11з499311 0.0 1012195
06:00−12з379530 0.0 1014133
09:00−10зсз479455 0.1 1015341
12:00−8сз468898 0.1 1016667
15:00−8сз568499 0.1 1017862
18:00−11сз4890100 0.1 1018248
21:00−13зсз489498 0.1 1021185